• In Deutschland
  • Länderverzeichnis
  • Für 7 Tage
  • Wassertemperatur
  • Satellitenkarten
  • Wetterkarte
  • Widgets
  • user-avatar
    Anmelden

    Stündliche Wetter Arneburg

    Heute, 24 April, Dienstag

    Zeit Temperatur Niederschläge Wind Luftdruck Luftfeuchtigkeit
    00:00 +11°C° 0 mm 1 m/S 758 mmHg 86%
    01:00 +10°C° 0 mm 1 m/S 758 mmHg 90%
    02:00 +9°C° 0 mm 1 m/S 758 mmHg 91%
    03:00 +8°C° 0 mm 2 m/S 758 mmHg 92%
    04:00 +8°C° 0 mm 2 m/S 758 mmHg 93%
    05:00 +9°C° 0 mm 3 m/S 758 mmHg 89%
    06:00 +10°C° 0 mm 3 m/S 758 mmHg 84%
    07:00 +11°C° 0 mm 4 m/S 757 mmHg 80%
    08:00 +11°C° 0,5 mm 4 m/S 757 mmHg 81%
    09:00 +10°C° 0,5 mm 5 m/S 757 mmHg 82%
    10:00 +10°C° 0,5 mm 5 m/S 757 mmHg 83%
    11:00 +10°C° 0,3 mm 5 m/S 757 mmHg 83%
    12:00 +12°C° 0,3 mm 5 m/S 757 mmHg 83%
    13:00 +12°C° 0,3 mm 5 m/S 757 mmHg 84%
    14:00 +12°C° 0,3 mm 5 m/S 757 mmHg 84%
    15:00 +12°C° 0,3 mm 5 m/S 757 mmHg 85%
    16:00 +12°C° 0,3 mm 5 m/S 757 mmHg 86%
    17:00 +12°C° 0,1 mm 4 m/S 757 mmHg 87%
    18:00 +11°C° 0,1 mm 4 m/S 757 mmHg 88%
    19:00 +11°C° 0,1 mm 3 m/S 757 mmHg 89%
    20:00 +10°C° 0 mm 3 m/S 757 mmHg 90%
    21:00 +10°C° 0 mm 3 m/S 756 mmHg 91%
    22:00 +10°C° 0 mm 3 m/S 756 mmHg 93%
    23:00 +10°C° 0,5 mm 3 m/S 756 mmHg 94%

    Morgen, 25 April, Mittwoch

    Zeit Temperatur Niederschläge Wind Luftdruck Luftfeuchtigkeit
    00:00 +10°C° 0,5 mm 3 m/S 755 mmHg 94%
    01:00 +10°C° 0,5 mm 3 m/S 755 mmHg 95%
    02:00 +10°C° 0,6 mm 3 m/S 754 mmHg 95%
    03:00 +11°C° 0,6 mm 3 m/S 754 mmHg 95%
    04:00 +11°C° 0,6 mm 4 m/S 753 mmHg 95%
    05:00 +12°C° 0,3 mm 4 m/S 753 mmHg 94%
    06:00 +12°C° 0,3 mm 4 m/S 753 mmHg 93%
    07:00 +13°C° 0,3 mm 4 m/S 753 mmHg 92%
    08:00 +13°C° 0,7 mm 5 m/S 753 mmHg 91%
    09:00 +13°C° 0,7 mm 5 m/S 753 mmHg 90%
    10:00 +13°C° 0,7 mm 5 m/S 753 mmHg 89%
    11:00 +13°C° 0,6 mm 5 m/S 753 mmHg 89%
    12:00 +13°C° 0,6 mm 5 m/S 753 mmHg 89%
    13:00 +13°C° 0,6 mm 4 m/S 753 mmHg 89%
    14:00 +13°C° 0,3 mm 5 m/S 753 mmHg 87%
    15:00 +14°C° 0,3 mm 5 m/S 752 mmHg 85%
    16:00 +14°C° 0,3 mm 5 m/S 752 mmHg 83%
    17:00 +13°C° 0,2 mm 4 m/S 752 mmHg 86%
    18:00 +12°C° 0,2 mm 3 m/S 753 mmHg 88%
    19:00 +12°C° 0,2 mm 3 m/S 753 mmHg 90%
    20:00 +11°C° 0,3 mm 3 m/S 753 mmHg 91%
    21:00 +10°C° 0,3 mm 3 m/S 754 mmHg 92%
    22:00 +10°C° 0,3 mm 3 m/S 754 mmHg 93%
    23:00 +9°C° 0,1 mm 3 m/S 754 mmHg 94%

    übermorgen, 26 April, Donnerstag

    Zeit Temperatur Niederschläge Wind Luftdruck Luftfeuchtigkeit
    00:00 +9°C° 0,1 mm 3 m/S 754 mmHg 94%
    01:00 +8°C° 0,1 mm 3 m/S 755 mmHg 94%
    02:00 +8°C° 0 mm 3 m/S 755 mmHg 95%
    03:00 +7°C° 0 mm 3 m/S 755 mmHg 95%
    04:00 +7°C° 0 mm 3 m/S 755 mmHg 95%
    05:00 +6°C° 0 mm 4 m/S 755 mmHg 92%
    06:00 +7°C° 0 mm 5 m/S 755 mmHg 90%
    07:00 +7°C° 0 mm 5 m/S 756 mmHg 88%
    08:00 +8°C° 0,4 mm 6 m/S 756 mmHg 84%
    09:00 +9°C° 0,4 mm 7 m/S 756 mmHg 80%
    10:00 +9°C° 0,4 mm 7 m/S 756 mmHg 76%
    11:00 +10°C° 0,5 mm 7 m/S 756 mmHg 74%
    12:00 +10°C° 0,5 mm 8 m/S 756 mmHg 72%
    13:00 +10°C° 0,5 mm 8 m/S 756 mmHg 70%
    14:00 +10°C° 0,3 mm 7 m/S 757 mmHg 68%
    15:00 +11°C° 0,3 mm 7 m/S 757 mmHg 66%
    16:00 +11°C° 0,3 mm 6 m/S 757 mmHg 64%
    17:00 +10°C° 0,1 mm 5 m/S 757 mmHg 68%
    18:00 +10°C° 0,1 mm 4 m/S 758 mmHg 73%
    19:00 +9°C° 0,1 mm 3 m/S 758 mmHg 77%
    20:00 +8°C° 0 mm 3 m/S 758 mmHg 81%
    21:00 +7°C° 0 mm 3 m/S 759 mmHg 84%
    22:00 +6°C° 0 mm 2 m/S 759 mmHg 88%
    23:00 +5°C° 0 mm 2 m/S 759 mmHg 89%

    27 April, Freitag

    Zeit Temperatur Niederschläge Wind Luftdruck Luftfeuchtigkeit
    00:00 +5°C° 0 mm 2 m/S 759 mmHg 90%
    01:00 +5°C° 0 mm 2 m/S 759 mmHg 90%
    02:00 +4°C° 0 mm 2 m/S 759 mmHg 90%
    03:00 +4°C° 0 mm 2 m/S 759 mmHg 90%
    04:00 +4°C° 0 mm 2 m/S 759 mmHg 90%
    05:00 +4°C° 0 mm 3 m/S 759 mmHg 86%
    06:00 +5°C° 0 mm 3 m/S 759 mmHg 81%
    07:00 +7°C° 0 mm 3 m/S 759 mmHg 77%
    08:00 +9°C° 0 mm 3 m/S 759 mmHg 71%
    09:00 +11°C° 0 mm 3 m/S 759 mmHg 64%
    10:00 +13°C° 0 mm 3 m/S 759 mmHg 58%
    11:00 +13°C° 0,1 mm 3 m/S 758 mmHg 56%
    12:00 +14°C° 0,1 mm 3 m/S 758 mmHg 55%
    13:00 +14°C° 0,1 mm 3 m/S 758 mmHg 53%
    14:00 +14°C° 0,1 mm 3 m/S 758 mmHg 54%
    15:00 +15°C° 0,1 mm 2 m/S 758 mmHg 55%
    16:00 +15°C° 0,1 mm 2 m/S 757 mmHg 55%
    17:00 +14°C° 0 mm 2 m/S 758 mmHg 61%
    18:00 +13°C° 0 mm 1 m/S 758 mmHg 67%
    19:00 +12°C° 0 mm 1 m/S 758 mmHg 73%
    20:00 +11°C° 0,1 mm 1 m/S 758 mmHg 77%
    21:00 +10°C° 0,1 mm 1 m/S 758 mmHg 81%
    22:00 +9°C° 0,1 mm 1 m/S 759 mmHg 84%
    23:00 +9°C° 0 mm 1 m/S 759 mmHg 87%

    28 April, Samstag

    Zeit Temperatur Niederschläge Wind Luftdruck Luftfeuchtigkeit
    00:00 +8°C° 0 mm 1 m/S 759 mmHg 89%
    01:00 +7°C° 0 mm 1 m/S 759 mmHg 91%
    02:00 +7°C° 0 mm 1 m/S 759 mmHg 91%
    03:00 +6°C° 0 mm 1 m/S 759 mmHg 92%
    04:00 +6°C° 0 mm 1 m/S 759 mmHg 93%
    05:00 +7°C° 0 mm 1 m/S 760 mmHg 91%
    06:00 +8°C° 0 mm 1 m/S 760 mmHg 88%
    07:00 +9°C° 0 mm 1 m/S 760 mmHg 86%
    08:00 +10°C° 0 mm 1 m/S 760 mmHg 77%
    09:00 +12°C° 0 mm 2 m/S 760 mmHg 69%
    10:00 +14°C° 0 mm 2 m/S 760 mmHg 61%
    11:00 +15°C° 0 mm 2 m/S 760 mmHg 57%
    12:00 +16°C° 0 mm 2 m/S 760 mmHg 54%
    13:00 +18°C° 0 mm 1 m/S 760 mmHg 50%
    14:00 +17°C° 0 mm 2 m/S 760 mmHg 50%
    15:00 +17°C° 0 mm 2 m/S 760 mmHg 50%
    16:00 +17°C° 0 mm 2 m/S 759 mmHg 50%
    17:00 +15°C° 0 mm 2 m/S 759 mmHg 57%
    18:00 +14°C° 0 mm 2 m/S 759 mmHg 64%
    19:00 +13°C° 0 mm 2 m/S 759 mmHg 71%
    20:00 +11°C° 0 mm 3 m/S 759 mmHg 74%
    21:00 +9°C° 0 mm 3 m/S 760 mmHg 76%
    22:00 +8°C° 0 mm 3 m/S 760 mmHg 79%
    23:00 +8°C° 0 mm 3 m/S 760 mmHg 80%

    29 April, Sonntag

    Zeit Temperatur Niederschläge Wind Luftdruck Luftfeuchtigkeit
    00:00 +7°C° 0 mm 3 m/S 760 mmHg 80%
    01:00 +7°C° 0 mm 3 m/S 760 mmHg 80%
    02:00 +6°C° 0 mm 4 m/S 759 mmHg 79%
    03:00 +6°C° 0 mm 4 m/S 759 mmHg 78%
    04:00 +5°C° 0 mm 4 m/S 759 mmHg 76%
    05:00 +6°C° 0 mm 4 m/S 759 mmHg 75%
    06:00 +7°C° 0 mm 4 m/S 758 mmHg 75%
    07:00 +8°C° 0 mm 5 m/S 758 mmHg 74%
    08:00 +10°C° 0 mm 5 m/S 757 mmHg 71%
    09:00 +13°C° 0 mm 5 m/S 757 mmHg 68%
    10:00 +15°C° 0 mm 6 m/S 757 mmHg 65%
    11:00 +16°C° 0 mm 6 m/S 756 mmHg 62%
    12:00 +17°C° 0 mm 6 m/S 755 mmHg 59%
    13:00 +18°C° 0 mm 7 m/S 755 mmHg 57%
    14:00 +19°C° 0 mm 6 m/S 754 mmHg 59%
    15:00 +19°C° 0 mm 6 m/S 753 mmHg 62%
    16:00 +19°C° 0 mm 5 m/S 753 mmHg 65%
    17:00 +17°C° 0,1 mm 5 m/S 752 mmHg 69%
    18:00 +16°C° 0,1 mm 5 m/S 752 mmHg 72%
    19:00 +15°C° 0,1 mm 5 m/S 752 mmHg 76%
    20:00 +15°C° 0,5 mm 4 m/S 752 mmHg 80%
    21:00 +14°C° 0,5 mm 4 m/S 751 mmHg 84%
    22:00 +14°C° 0,5 mm 4 m/S 751 mmHg 89%
    23:00 +13°C° 0,6 mm 4 m/S 751 mmHg 91%
    Mehr zeigen